Time,TemperatureF,DewpointF,PressureIn,WindDirection,WindDirectionDegrees,WindSpeedMPH,WindSpeedGustMPH,Humidity,HourlyPrecipIn,Conditions,Clouds,dailyrainin,SoftwareType,DateUTC
2013-10-07 00:00:00,62.1,61.0,30.12,SE,135,6.3,12.0,97,0.00,,,0.05,Rainwise IP-100,2013-10-07 04:00:00,
2013-10-07 00:01:00,62.1,61.0,30.11,SSE,157,7.9,12.0,97,0.00,,,0.05,Rainwise IP-100,2013-10-07 04:01:00,
2013-10-07 00:02:00,62.1,61.0,30.12,SE,135,3.3,10.0,97,0.00,,,0.05,Rainwise IP-100,2013-10-07 04:02:00,
2013-10-07 00:07:00,62.2,61.0,30.11,SE,135,3.5,11.0,98,0.00,,,0.05,Rainwise IP-100,2013-10-07 04:07:00,
2013-10-07 00:12:00,62.3,61.0,30.12,SE,135,6.1,11.0,98,0.00,,,0.05,Rainwise IP-100,2013-10-07 04:12:00,
2013-10-07 00:17:00,62.4,62.0,30.11,East,90,4.2,11.0,98,0.00,,,0.05,Rainwise IP-100,2013-10-07 04:17:00,
2013-10-07 00:22:00,62.4,62.0,30.11,South,180,5.1,14.0,98,0.00,,,0.05,Rainwise IP-100,2013-10-07 04:22:00,
2013-10-07 00:27:00,62.5,62.0,30.11,ESE,112,4.2,9.0,98,0.00,,,0.05,Rainwise IP-100,2013-10-07 04:27:00,
2013-10-07 00:32:00,62.7,62.0,30.11,SE,135,3.3,11.0,98,0.00,,,0.05,Rainwise IP-100,2013-10-07 04:32:00,
2013-10-07 00:37:00,62.8,62.0,30.11,ESE,112,3.5,11.0,98,0.00,,,0.05,Rainwise IP-100,2013-10-07 04:37:00,
2013-10-07 00:42:00,62.9,62.0,30.11,SSE,157,2.8,12.0,98,0.00,,,0.05,Rainwise IP-100,2013-10-07 04:42:00,
2013-10-07 00:47:00,63.0,62.0,30.11,SSE,157,4.9,13.0,98,0.00,,,0.05,Rainwise IP-100,2013-10-07 04:47:00,
2013-10-07 00:52:00,63.2,62.0,30.11,SSE,157,4.9,11.0,98,0.00,,,0.05,Rainwise IP-100,2013-10-07 04:52:00,
2013-10-07 00:57:00,63.4,63.0,30.11,SSE,157,2.8,13.0,98,0.00,,,0.05,Rainwise IP-100,2013-10-07 04:57:00,
2013-10-07 01:02:00,63.5,63.0,30.11,SE,135,3.7,14.0,98,0.00,,,0.05,Rainwise IP-100,2013-10-07 05:02:00,
2013-10-07 01:07:00,63.5,63.0,30.11,SSE,157,6.8,13.0,98,0.00,,,0.05,Rainwise IP-100,2013-10-07 05:07:00,
2013-10-07 01:12:00,63.5,63.0,30.11,SSE,157,6.8,11.0,98,0.00,,,0.05,Rainwise IP-100,2013-10-07 05:12:00,
2013-10-07 01:17:00,63.6,63.0,30.11,SE,135,8.9,11.0,98,0.00,,,0.05,Rainwise IP-100,2013-10-07 05:17:00,
2013-10-07 01:22:00,63.7,63.0,30.11,ESE,112,3.7,11.0,98,0.00,,,0.05,Rainwise IP-100,2013-10-07 05:22:00,
2013-10-07 01:27:00,63.7,63.0,30.11,South,180,8.9,13.0,98,0.00,,,0.05,Rainwise IP-100,2013-10-07 05:27:00,
2013-10-07 01:32:00,63.8,63.0,30.10,SSE,157,3.7,12.0,98,0.00,,,0.05,Rainwise IP-100,2013-10-07 05:32:00,
2013-10-07 01:37:00,63.9,63.0,30.10,SE,135,7.5,13.0,98,0.00,,,0.05,Rainwise IP-100,2013-10-07 05:37:00,
2013-10-07 01:42:00,64.0,63.0,30.11,ESE,112,8.2,8.2,98,0.00,,,0.05,Rainwise IP-100,2013-10-07 05:42:00,
2013-10-07 01:47:00,64.0,63.0,30.10,East,90,4.7,10.0,99,0.00,,,0.05,Rainwise IP-100,2013-10-07 05:47:00,
2013-10-07 01:52:00,64.1,63.0,30.10,East,90,4.9,11.0,99,0.00,,,0.05,Rainwise IP-100,2013-10-07 05:52:00,
2013-10-07 01:57:00,64.1,63.0,30.10,ESE,112,4.4,10.0,99,0.00,,,0.05,Rainwise IP-100,2013-10-07 05:57:00,
2013-10-07 02:02:00,64.0,63.0,30.10,ESE,112,1.9,10.0,99,0.00,,,0.05,Rainwise IP-100,2013-10-07 06:02:00,
2013-10-07 02:07:00,64.1,63.0,30.10,SSE,157,3.0,11.0,99,0.00,,,0.05,Rainwise IP-100,2013-10-07 06:07:00,
2013-10-07 02:12:00,64.1,63.0,30.10,East,90,3.0,11.0,99,0.00,,,0.05,Rainwise IP-100,2013-10-07 06:12:00,
2013-10-07 02:17:00,64.2,63.0,30.09,East,90,4.9,9.0,99,0.00,,,0.05,Rainwise IP-100,2013-10-07 06:17:00,
2013-10-07 02:22:00,64.2,63.0,30.10,SE,135,7.5,13.0,99,0.00,,,0.05,Rainwise IP-100,2013-10-07 06:22:00,
2013-10-07 02:27:00,64.3,63.0,30.09,SSE,157,5.6,12.0,99,0.00,,,0.05,Rainwise IP-100,2013-10-07 06:27:00,
2013-10-07 02:32:00,64.4,64.0,30.09,SSE,157,3.0,11.0,99,0.00,,,0.05,Rainwise IP-100,2013-10-07 06:32:00,
2013-10-07 02:37:00,64.4,64.0,30.09,SE,135,4.7,11.0,99,0.00,,,0.05,Rainwise IP-100,2013-10-07 06:37:00,
2013-10-07 02:42:00,64.4,64.0,30.09,SE,135,6.5,14.0,99,0.00,,,0.05,Rainwise IP-100,2013-10-07 06:42:00,
2013-10-07 02:47:00,64.5,64.0,30.08,ESE,112,4.7,11.0,99,0.00,,,0.05,Rainwise IP-100,2013-10-07 06:47:00,
2013-10-07 02:52:00,64.6,64.0,30.09,SSE,157,5.1,12.0,99,0.00,,,0.05,Rainwise IP-100,2013-10-07 06:52:00,
2013-10-07 02:57:00,64.7,64.0,30.09,ESE,112,4.4,9.0,99,0.00,,,0.05,Rainwise IP-100,2013-10-07 06:57:00,
2013-10-07 03:02:00,64.8,64.0,30.08,SSW,202,2.3,12.0,99,0.00,,,0.05,Rainwise IP-100,2013-10-07 07:02:00,
2013-10-07 03:07:00,64.9,64.0,30.08,ESE,112,5.1,11.0,99,0.00,,,0.05,Rainwise IP-100,2013-10-07 07:07:00,
2013-10-07 03:12:00,65.0,64.0,30.08,SE,135,2.8,12.0,99,0.00,,,0.05,Rainwise IP-100,2013-10-07 07:12:00,
2013-10-07 03:17:00,65.1,64.0,30.08,SSE,157,4.7,10.0,99,0.00,,,0.05,Rainwise IP-100,2013-10-07 07:17:00,
2013-10-07 03:22:00,65.1,64.0,30.08,SE,135,7.5,11.0,99,0.00,,,0.05,Rainwise IP-100,2013-10-07 07:22:00,
2013-10-07 03:27:00,65.2,64.0,30.07,SSE,157,3.3,9.0,99,0.00,,,0.05,Rainwise IP-100,2013-10-07 07:27:00,
2013-10-07 03:32:00,65.3,64.0,30.07,ESE,112,3.7,9.0,99,0.00,,,0.05,Rainwise IP-100,2013-10-07 07:32:00,
2013-10-07 03:37:00,65.3,64.0,30.08,SSE,157,4.4,12.0,99,0.00,,,0.05,Rainwise IP-100,2013-10-07 07:37:00,
2013-10-07 03:42:00,65.3,64.0,30.07,SSE,157,6.8,11.0,99,0.00,,,0.05,Rainwise IP-100,2013-10-07 07:42:00,
2013-10-07 03:47:00,65.3,64.0,30.07,SE,135,4.0,12.0,99,0.00,,,0.05,Rainwise IP-100,2013-10-07 07:47:00,
2013-10-07 03:52:00,65.3,64.0,30.07,ESE,112,4.2,11.0,99,0.00,,,0.05,Rainwise IP-100,2013-10-07 07:52:00,
2013-10-07 03:57:00,65.3,64.0,30.07,SE,135,2.1,10.0,99,0.00,,,0.05,Rainwise IP-100,2013-10-07 07:57:00,
2013-10-07 04:02:00,65.3,64.0,30.07,SSE,157,4.7,8.0,99,0.00,,,0.05,Rainwise IP-100,2013-10-07 08:02:00,
2013-10-07 04:07:00,65.3,64.0,30.07,SE,135,5.1,10.0,99,0.00,,,0.05,Rainwise IP-100,2013-10-07 08:07:00,
2013-10-07 04:12:00,65.3,64.0,30.07,SE,135,3.0,8.0,99,0.00,,,0.05,Rainwise IP-100,2013-10-07 08:12:00,
2013-10-07 04:17:00,65.3,64.0,30.07,ESE,112,3.7,9.0,99,0.00,,,0.05,Rainwise IP-100,2013-10-07 08:17:00,
2013-10-07 04:22:00,65.2,64.0,30.07,ESE,112,3.7,11.0,99,0.00,,,0.05,Rainwise IP-100,2013-10-07 08:22:00,
2013-10-07 04:27:00,65.2,64.0,30.06,SSE,157,3.7,10.0,99,0.00,,,0.05,Rainwise IP-100,2013-10-07 08:27:00,
2013-10-07 04:32:00,65.3,64.0,30.06,South,180,2.3,9.0,99,0.00,,,0.05,Rainwise IP-100,2013-10-07 08:32:00,
2013-10-07 04:37:00,65.3,64.0,30.06,South,180,4.9,8.0,99,0.00,,,0.05,Rainwise IP-100,2013-10-07 08:37:00,
2013-10-07 04:42:00,65.3,64.0,30.06,ESE,112,2.8,9.0,99,0.00,,,0.05,Rainwise IP-100,2013-10-07 08:42:00,
2013-10-07 04:47:00,65.3,64.0,30.06,SE,135,4.9,8.0,99,0.00,,,0.05,Rainwise IP-100,2013-10-07 08:47:00,
2013-10-07 04:52:00,65.4,65.0,30.07,SSE,157,3.0,8.0,99,0.42,,,0.12,Rainwise IP-100,2013-10-07 08:52:00,
2013-10-07 04:57:00,65.5,65.0,30.06,SSE,157,6.5,7.0,100,0.54,,,0.14,Rainwise IP-100,2013-10-07 08:57:00,
2013-10-07 05:02:00,65.5,65.0,30.06,SSE,157,5.6,9.0,100,0.12,,,0.14,Rainwise IP-100,2013-10-07 09:02:00,
2013-10-07 05:07:00,65.5,65.0,30.06,SSE,157,4.7,8.0,100,0.00,,,0.14,Rainwise IP-100,2013-10-07 09:07:00,
2013-10-07 05:12:00,65.7,65.0,30.07,SSE,157,2.3,11.0,100,0.00,,,0.14,Rainwise IP-100,2013-10-07 09:12:00,
2013-10-07 05:17:00,65.8,65.0,30.06,ESE,112,4.7,8.0,100,0.00,,,0.14,Rainwise IP-100,2013-10-07 09:17:00,
2013-10-07 05:22:00,66.0,66.0,30.06,SSE,157,4.9,7.0,100,0.00,,,0.14,Rainwise IP-100,2013-10-07 09:22:00,
2013-10-07 05:27:00,66.2,66.0,30.06,SSE,157,3.7,9.0,100,0.00,,,0.14,Rainwise IP-100,2013-10-07 09:27:00,
2013-10-07 05:32:00,66.4,66.0,30.06,SSE,157,7.9,11.0,100,0.00,,,0.14,Rainwise IP-100,2013-10-07 09:32:00,
2013-10-07 05:37:00,66.7,66.0,30.06,ESE,112,6.5,13.0,100,0.00,,,0.14,Rainwise IP-100,2013-10-07 09:37:00,
2013-10-07 05:42:00,66.9,67.0,30.06,SSE,157,4.2,10.0,100,0.00,,,0.14,Rainwise IP-100,2013-10-07 09:42:00,
2013-10-07 05:47:00,67.0,67.0,30.06,ESE,112,6.1,10.0,100,0.00,,,0.14,Rainwise IP-100,2013-10-07 09:47:00,
2013-10-07 05:52:00,67.2,67.0,30.06,SSE,157,2.1,8.0,100,0.00,,,0.14,Rainwise IP-100,2013-10-07 09:52:00,
2013-10-07 05:57:00,67.4,67.0,30.06,SSE,157,3.5,9.0,100,0.00,,,0.14,Rainwise IP-100,2013-10-07 09:57:00,
2013-10-07 06:02:00,67.5,67.0,30.05,SSE,157,3.0,13.0,100,0.00,,,0.14,Rainwise IP-100,2013-10-07 10:02:00,
2013-10-07 06:07:00,67.6,67.0,30.06,SSE,157,4.0,11.0,100,0.00,,,0.14,Rainwise IP-100,2013-10-07 10:07:00,
2013-10-07 06:12:00,67.7,67.0,30.06,SSE,157,6.1,12.0,100,0.00,,,0.14,Rainwise IP-100,2013-10-07 10:12:00,
2013-10-07 06:17:00,67.8,67.0,30.06,SSE,157,2.8,11.0,100,0.00,,,0.14,Rainwise IP-100,2013-10-07 10:17:00,
2013-10-07 06:22:00,67.8,67.0,30.06,SSW,202,3.7,14.0,100,0.00,,,0.14,Rainwise IP-100,2013-10-07 10:22:00,
2013-10-07 06:27:00,67.9,68.0,30.06,SSW,202,1.2,11.0,100,0.00,,,0.14,Rainwise IP-100,2013-10-07 10:27:00,
2013-10-07 06:32:00,67.9,68.0,30.06,ESE,112,6.5,9.0,100,0.00,,,0.14,Rainwise IP-100,2013-10-07 10:32:00,
2013-10-07 06:37:00,67.9,68.0,30.06,SSE,157,6.1,10.0,100,0.00,,,0.14,Rainwise IP-100,2013-10-07 10:37:00,
2013-10-07 06:42:00,67.9,68.0,30.06,SE,135,6.8,16.0,100,0.00,,,0.14,Rainwise IP-100,2013-10-07 10:42:00,
2013-10-07 06:47:00,67.9,68.0,30.06,ESE,112,3.0,14.0,100,0.00,,,0.14,Rainwise IP-100,2013-10-07 10:47:00,
2013-10-07 06:52:00,67.8,67.0,30.06,SSE,157,2.6,6.0,100,0.00,,,0.14,Rainwise IP-100,2013-10-07 10:52:00,
2013-10-07 06:57:00,67.8,67.0,30.06,SSE,157,2.3,13.0,100,0.00,,,0.14,Rainwise IP-100,2013-10-07 10:57:00,
2013-10-07 07:02:00,67.8,67.0,30.06,SSE,157,5.1,8.0,100,0.00,,,0.14,Rainwise IP-100,2013-10-07 11:02:00,
2013-10-07 07:07:00,67.7,67.0,30.06,SSE,157,5.4,8.0,100,0.00,,,0.14,Rainwise IP-100,2013-10-07 11:07:00,
2013-10-07 07:12:00,67.6,67.0,30.06,SE,135,4.4,8.0,100,0.00,,,0.14,Rainwise IP-100,2013-10-07 11:12:00,
2013-10-07 07:17:00,67.6,67.0,30.06,SE,135,4.4,11.0,100,0.00,,,0.14,Rainwise IP-100,2013-10-07 11:17:00,
2013-10-07 07:22:00,67.6,67.0,30.06,SE,135,6.5,11.0,100,0.00,,,0.14,Rainwise IP-100,2013-10-07 11:22:00,
2013-10-07 07:27:00,67.6,67.0,30.06,South,180,12.1,12.1,100,0.00,,,0.14,Rainwise IP-100,2013-10-07 11:27:00,
2013-10-07 07:32:00,67.6,67.0,30.06,SE,135,3.0,12.0,100,0.00,,,0.14,Rainwise IP-100,2013-10-07 11:32:00,
2013-10-07 07:37:00,67.5,67.0,30.06,SSE,157,8.6,10.0,100,0.00,,,0.14,Rainwise IP-100,2013-10-07 11:37:00,
2013-10-07 07:42:00,67.5,67.0,30.06,SSE,157,4.7,12.0,100,0.00,,,0.14,Rainwise IP-100,2013-10-07 11:42:00,
2013-10-07 07:47:00,67.6,67.0,30.06,South,180,5.8,12.0,100,0.00,,,0.14,Rainwise IP-100,2013-10-07 11:47:00,
2013-10-07 07:52:00,67.6,67.0,30.06,SSE,157,8.4,11.0,100,0.00,,,0.14,Rainwise IP-100,2013-10-07 11:52:00,
2013-10-07 07:57:00,67.6,67.0,30.06,SE,135,4.0,9.0,100,0.00,,,0.14,Rainwise IP-100,2013-10-07 11:57:00,
2013-10-07 08:02:00,67.5,67.0,30.05,ESE,112,5.1,10.0,100,0.00,,,0.14,Rainwise IP-100,2013-10-07 12:02:00,
2013-10-07 08:07:00,67.5,67.0,30.05,SSE,157,2.3,11.0,100,0.00,,,0.14,Rainwise IP-100,2013-10-07 12:07:00,
2013-10-07 08:12:00,67.5,67.0,30.05,SE,135,7.2,9.0,100,0.00,,,0.14,Rainwise IP-100,2013-10-07 12:12:00,
2013-10-07 08:17:00,67.6,67.0,30.05,ESE,112,2.3,13.0,100,0.00,,,0.14,Rainwise IP-100,2013-10-07 12:17:00,
2013-10-07 08:22:00,67.7,67.0,30.05,ESE,112,5.8,14.0,100,0.00,,,0.14,Rainwise IP-100,2013-10-07 12:22:00,
2013-10-07 08:27:00,67.8,67.0,30.05,SSE,157,3.5,13.0,100,0.00,,,0.14,Rainwise IP-100,2013-10-07 12:27:00,
2013-10-07 08:32:00,67.8,67.0,30.05,SSE,157,10.0,14.0,100,0.00,,,0.14,Rainwise IP-100,2013-10-07 12:32:00,
2013-10-07 08:37:00,67.8,67.0,30.05,SSE,157,6.1,12.0,100,0.00,,,0.14,Rainwise IP-100,2013-10-07 12:37:00,
2013-10-07 08:42:00,67.8,67.0,30.05,SSE,157,7.0,14.0,100,0.00,,,0.14,Rainwise IP-100,2013-10-07 12:42:00,
2013-10-07 08:47:00,67.9,68.0,30.04,SE,135,7.5,13.0,100,0.00,,,0.14,Rainwise IP-100,2013-10-07 12:47:00,
2013-10-07 08:52:00,67.9,68.0,30.05,SE,135,8.4,17.0,100,0.00,,,0.14,Rainwise IP-100,2013-10-07 12:52:00,
2013-10-07 08:57:00,67.9,68.0,30.05,SSE,157,6.8,16.0,100,0.00,,,0.14,Rainwise IP-100,2013-10-07 12:57:00,
2013-10-07 09:02:00,68.0,68.0,30.04,ESE,112,7.5,13.0,100,0.00,,,0.14,Rainwise IP-100,2013-10-07 13:02:00,
2013-10-07 09:08:00,68.0,68.0,30.05,ESE,112,1.9,14.0,100,0.00,,,0.14,Rainwise IP-100,2013-10-07 13:08:00,
2013-10-07 09:13:00,68.2,68.0,30.04,SE,135,7.0,11.0,100,0.00,,,0.14,Rainwise IP-100,2013-10-07 13:13:00,
2013-10-07 09:18:00,68.5,68.0,30.04,SSE,157,6.1,15.0,100,0.00,,,0.14,Rainwise IP-100,2013-10-07 13:18:00,
2013-10-07 09:23:00,68.8,68.0,30.04,East,90,6.3,16.0,100,0.00,,,0.14,Rainwise IP-100,2013-10-07 13:23:00,
2013-10-07 09:28:00,68.9,69.0,30.04,ESE,112,7.7,13.0,100,0.00,,,0.14,Rainwise IP-100,2013-10-07 13:28:00,
2013-10-07 09:33:00,68.9,69.0,30.04,SSW,202,4.7,12.0,100,0.00,,,0.14,Rainwise IP-100,2013-10-07 13:33:00,
2013-10-07 09:38:00,69.0,69.0,30.04,SSE,157,4.2,12.0,100,0.06,,,0.15,Rainwise IP-100,2013-10-07 13:38:00,
2013-10-07 09:43:00,69.0,69.0,30.03,SE,135,10.0,16.0,100,0.06,,,0.15,Rainwise IP-100,2013-10-07 13:43:00,
2013-10-07 09:48:00,69.1,69.0,30.03,SSE,157,5.1,15.0,100,0.00,,,0.15,Rainwise IP-100,2013-10-07 13:48:00,
2013-10-07 09:53:00,69.3,69.0,30.03,SE,135,4.0,14.0,100,0.00,,,0.15,Rainwise IP-100,2013-10-07 13:53:00,
2013-10-07 09:58:00,69.4,69.0,30.03,SSE,157,9.1,11.0,100,0.00,,,0.15,Rainwise IP-100,2013-10-07 13:58:00,
2013-10-07 10:03:00,69.5,69.0,30.02,SE,135,8.4,15.0,100,0.00,,,0.15,Rainwise IP-100,2013-10-07 14:03:00,
2013-10-07 10:08:00,69.8,69.0,30.03,ESE,112,4.4,15.0,100,0.00,,,0.15,Rainwise IP-100,2013-10-07 14:08:00,
2013-10-07 10:13:00,69.9,70.0,30.03,ESE,112,5.6,14.0,100,0.00,,,0.15,Rainwise IP-100,2013-10-07 14:13:00,
2013-10-07 10:18:00,70.1,70.0,30.03,NE,45,2.8,15.0,100,0.00,,,0.15,Rainwise IP-100,2013-10-07 14:18:00,
2013-10-07 10:23:00,70.2,70.0,30.02,SSE,157,5.1,11.0,100,0.00,,,0.15,Rainwise IP-100,2013-10-07 14:23:00,
2013-10-07 10:28:00,70.4,70.0,30.02,SE,135,4.7,13.0,100,0.00,,,0.15,Rainwise IP-100,2013-10-07 14:28:00,
2013-10-07 10:33:00,70.5,70.0,30.02,SE,135,6.1,14.0,100,0.00,,,0.15,Rainwise IP-100,2013-10-07 14:33:00,
2013-10-07 10:38:00,70.6,70.0,30.02,SSE,157,7.5,14.0,100,0.00,,,0.15,Rainwise IP-100,2013-10-07 14:38:00,
2013-10-07 10:43:00,70.8,70.0,30.02,ESE,112,11.0,19.0,100,0.00,,,0.15,Rainwise IP-100,2013-10-07 14:43:00,
2013-10-07 10:48:00,71.0,70.0,30.02,SSE,157,5.1,15.0,99,0.00,,,0.15,Rainwise IP-100,2013-10-07 14:48:00,
2013-10-07 10:53:00,71.0,70.0,30.02,SE,135,7.7,19.0,99,0.00,,,0.15,Rainwise IP-100,2013-10-07 14:53:00,
2013-10-07 10:58:00,71.0,70.0,30.02,ESE,112,8.6,13.0,99,0.00,,,0.15,Rainwise IP-100,2013-10-07 14:58:00,
2013-10-07 11:03:00,71.1,70.0,30.03,SSW,202,7.0,18.0,98,0.00,,,0.15,Rainwise IP-100,2013-10-07 15:03:00,
2013-10-07 11:08:00,71.2,70.0,30.02,SSE,157,1.6,18.0,98,0.00,,,0.15,Rainwise IP-100,2013-10-07 15:08:00,
2013-10-07 11:13:00,71.0,70.0,30.02,SE,135,7.5,13.0,98,0.00,,,0.15,Rainwise IP-100,2013-10-07 15:13:00,
2013-10-07 11:18:00,71.0,70.0,30.01,ESE,112,9.3,13.0,98,0.00,,,0.15,Rainwise IP-100,2013-10-07 15:18:00,
2013-10-07 11:23:00,71.0,70.0,30.01,SSW,202,10.5,13.0,98,0.00,,,0.15,Rainwise IP-100,2013-10-07 15:23:00,
2013-10-07 11:28:00,71.1,70.0,30.01,SE,135,7.0,13.0,98,0.00,,,0.15,Rainwise IP-100,2013-10-07 15:28:00,
2013-10-07 11:33:00,71.2,70.0,30.01,South,180,5.8,14.0,98,0.00,,,0.15,Rainwise IP-100,2013-10-07 15:33:00,
2013-10-07 11:38:00,71.4,70.0,30.00,SSE,157,7.5,12.0,98,0.00,,,0.15,Rainwise IP-100,2013-10-07 15:38:00,
2013-10-07 11:43:00,71.5,71.0,30.00,East,90,4.9,16.0,97,0.00,,,0.15,Rainwise IP-100,2013-10-07 15:43:00,
2013-10-07 11:48:00,71.6,71.0,30.00,SSE,157,9.3,13.0,97,0.00,,,0.15,Rainwise IP-100,2013-10-07 15:48:00,
2013-10-07 11:53:00,71.5,71.0,30.00,South,180,3.3,14.0,97,0.00,,,0.15,Rainwise IP-100,2013-10-07 15:53:00,
2013-10-07 11:58:00,71.6,70.0,29.99,SSE,157,8.2,15.0,96,0.00,,,0.15,Rainwise IP-100,2013-10-07 15:58:00,
2013-10-07 12:03:00,71.6,70.0,30.00,SSE,157,2.3,18.0,96,0.00,,,0.15,Rainwise IP-100,2013-10-07 16:03:00,
2013-10-07 12:08:00,71.6,70.0,29.99,SSW,202,3.0,11.0,96,0.00,,,0.15,Rainwise IP-100,2013-10-07 16:08:00,
2013-10-07 12:13:00,71.6,70.0,30.00,SSE,157,9.8,16.0,96,0.00,,,0.15,Rainwise IP-100,2013-10-07 16:13:00,
2013-10-07 12:18:00,71.6,70.0,29.99,SSW,202,3.0,14.0,96,0.00,,,0.15,Rainwise IP-100,2013-10-07 16:18:00,
2013-10-07 12:23:00,71.4,70.0,30.00,SSE,157,9.1,16.0,96,0.00,,,0.15,Rainwise IP-100,2013-10-07 16:23:00,
2013-10-07 12:28:00,71.0,69.0,29.99,South,180,4.2,19.0,96,0.00,,,0.15,Rainwise IP-100,2013-10-07 16:28:00,
2013-10-07 12:33:00,70.7,69.0,29.99,ESE,112,7.2,18.0,96,0.00,,,0.15,Rainwise IP-100,2013-10-07 16:33:00,
2013-10-07 12:38:00,70.3,69.0,29.99,SE,135,4.4,13.0,96,0.00,,,0.15,Rainwise IP-100,2013-10-07 16:38:00,
2013-10-07 12:43:00,69.9,69.0,29.98,ESE,112,2.6,16.0,96,0.00,,,0.15,Rainwise IP-100,2013-10-07 16:43:00,
2013-10-07 12:48:00,69.6,68.0,29.98,SSE,157,3.5,14.0,96,0.00,,,0.15,Rainwise IP-100,2013-10-07 16:48:00,
2013-10-07 12:53:00,69.6,68.0,29.97,SSE,157,5.1,11.0,96,0.00,,,0.15,Rainwise IP-100,2013-10-07 16:53:00,
2013-10-07 12:58:00,70.3,69.0,29.97,SSE,157,5.4,11.0,96,0.00,,,0.15,Rainwise IP-100,2013-10-07 16:58:00,
2013-10-07 13:03:00,71.4,70.0,29.97,SE,135,5.6,13.0,96,0.00,,,0.15,Rainwise IP-100,2013-10-07 17:03:00,
2013-10-07 13:08:00,71.7,70.0,29.97,SE,135,3.7,22.0,95,0.00,,,0.15,Rainwise IP-100,2013-10-07 17:08:00,
2013-10-07 13:13:00,71.5,69.0,29.96,ESE,112,2.3,16.0,94,0.00,,,0.15,Rainwise IP-100,2013-10-07 17:13:00,
2013-10-07 13:18:00,71.7,69.0,29.96,ESE,112,9.6,21.0,94,0.00,,,0.15,Rainwise IP-100,2013-10-07 17:18:00,
2013-10-07 13:23:00,72.5,71.0,29.96,SE,135,13.1,16.0,94,0.00,,,0.15,Rainwise IP-100,2013-10-07 17:23:00,
2013-10-07 13:28:00,73.4,71.0,29.95,SSE,157,6.1,15.0,93,0.00,,,0.15,Rainwise IP-100,2013-10-07 17:28:00,
2013-10-07 13:33:00,74.0,71.0,29.95,SSE,157,5.6,21.0,92,0.00,,,0.15,Rainwise IP-100,2013-10-07 17:33:00,
2013-10-07 13:38:00,74.6,72.0,29.95,SSE,157,1.4,15.0,91,0.00,,,0.15,Rainwise IP-100,2013-10-07 17:38:00,
2013-10-07 13:43:00,74.9,72.0,29.95,South,180,3.7,18.0,90,0.00,,,0.15,Rainwise IP-100,2013-10-07 17:43:00,
2013-10-07 13:48:00,74.7,71.0,29.95,SSE,157,12.6,14.0,90,0.00,,,0.15,Rainwise IP-100,2013-10-07 17:48:00,
2013-10-07 13:53:00,74.4,71.0,29.95,South,180,7.5,19.0,90,0.00,,,0.15,Rainwise IP-100,2013-10-07 17:53:00,
2013-10-07 13:58:00,74.2,71.0,29.94,SSE,157,6.5,13.0,90,0.00,,,0.15,Rainwise IP-100,2013-10-07 17:58:00,